MET783 - Boston to Houston

Airbus A319-131
309MT
3 hrs 15 mins
1388 nm
Scheduled - Daily

Bid/PiRep Status

Bid was submitted on January 8th, 2017 1:58 UTC.
PiRep # 74655: Approved by Sean Doyle on January 8th, 2017 22:52 UTC

Departure

Departing from
Boston (BOS)
Departure gate
Scheduled Departure
GMT 1445
Local 1045

Arrival

Arriving at
Houston (IAH)
Arrival gate
Scheduled Arrival
GMT 1800
Local 1300
METAR KIAH 232253Z 07015KT 10SM FEW037 SCT050 SCT110 29/22 A2988 RMK A02 WSHFT 2234 SLP117
TAF KIAH 232205Z 2322/2424 11011KT P6SM VCSH SCT060 SCT110 TEMPO 2322/2323 06010KT -RA FM240100 13007KT P6SM SKC TEMPO 2410/2412 4SM BR SCT006 FM241500 13008KT P6SM SCT015

Route Map

Planning Resources

KBWI BINKS J75 GVE J42 SWAPP Q34 MEM J29 DARTR KIAH
KBWI BINKS J75 GVE J42 SWAPP Q34 MEM J29 VELCO DARTR KIAH
FLUKY PAUKI MOL J22 VUZ JAN AEX DAS8
KBWI PEPBI GRAAF VETTE NALIE KIAH
BINKS J75 GVE J42 MOL J22 VUZ J31 MEI J22 MCB J50 CIDOR J180 DAS
Route:
OFP Layout:
Units:
Detailed Navlog:
ETOPS Planning:
Plan Stepclimbs:
Runway Analysis:
Include NOTAMS:
FIR NOTAMS:
Flight Maps:

Return Flights

MET307
Airbus A320-231
2235 GMT
MET309
Airbus A321-232
1045 GMT

Popularity

Hub Current Bids PiReps this month Total PiReps
KMCI 0 0 2
KLAX 0 0 2
KBOS 0 0 1